Wind_Speed
21 20 20 20 19 18 17 17 16 15 14 13 12 12 11 11 10 9 8 7 6 5 4 4 4 4 4 4 5 4 5 5 6 5 5 5 6 6 6 6 6 6 8 9 8 8 8 8 9 9 9 10 10 11 11 12 12 13 15 13 10 11
21 21 20 19 19 19 18 18 17 16 15 14 13 13 12 11 11 10 9 8 7 6 5 4 4 4 5 5 5 5 5 6 6 7 6 6 6 7 7 8 8 8 10 11 11 11 11 11 11 12 12 13 13 12 12 14 14 13 16 17 13 13
21 20 20 19 19 19 19 18 18 17 16 15 14 14 13 12 12 11 10 9 7 7 6 5 4 4 5 5 6 6 6 6 7 8 8 8 8 8 8 8 9 10 10 12 13 14 14 13 13 13 13 14 14 15 14 14 15 15 17 18 15 15
20 20 20 19 19 19 19 19 18 17 16 16 15 15 14 14 13 12 11 9 8 8 7 6 5 5 5 5 6 7 7 7 8 8 9 9 10 10 10 10 10 11 11 12 14 15 15 15 14 13 13 14 15 17 17 15 15 16 18 19 17 17
18 19 19 20 20 19 19 18 18 18 17 16 15 15 15 14 13 12 10 9 8 8 7 7 6 6 6 6 7 7 7 7 8 9 8 9 11 11 12 12 12 12 12 13 14 14 15 17 16 14 13 15 17 18 18 17 16 17 19 21 20 19
17 17 17 19 19 19 18 18 18 17 16 16 15 15 15 14 12 10 9 8 8 7 7 8 7 7 7 7 7 6 6 6 6 7 8 8 9 11 11 12 12 13 14 14 15 15 15 17 18 18 17 17 17 18 18 18 18 17 19 23 22 21
17 16 16 17 17 17 17 17 17 16 16 15 15 14 13 12 10 8 8 8 8 8 8 8 7 7 6 6 5 5 5 5 6 6 7 8 7 8 8 9 10 11 13 14 14 14 14 15 16 18 19 19 18 17 17 18 19 18 20 23 22 21
17 17 16 15 15 16 16 15 15 15 14 14 13 12 11 10 9 9 9 9 9 9 9 7 7 6 6 7 6 5 5 6 7 7 7 7 7 6 6 7 8 8 9 10 11 12 13 14 15 16 17 18 19 20 18 18 19 20 22 25 25 23
17 18 17 15 15 16 15 13 12 12 12 12 12 11 10 9 10 10 10 10 10 10 8 7 7 5 5 6 5 4 5 5 6 6 6 6 6 6 6 6 7 7 8 9 10 10 12 13 14 16 17 17 18 20 21 20 20 20 23 27 26 25
17 18 16 15 14 14 12 11 11 11 11 11 11 10 9 9 9 9 10 10 9 7 6 5 7 5 3 3 3 3 3 3 4 5 5 5 5 5 6 6 7 7 9 10 10 10 11 11 11 13 16 18 17 17 19 20 19 19 22 25 25 25
18 16 15 14 13 11 10 11 11 10 11 11 10 10 9 9 9 9 9 8 6 4 4 4 4 4 2 2 3 4 3 2 3 4 5 5 5 6 6 7 8 8 9 10 11 11 12 12 12 12 14 17 18 17 18 19 19 19 19 20 22 24
17 15 14 13 11 10 10 11 10 10 10 10 9 9 9 9 9 8 7 5 3 3 2 1 1 2 2 2 2 2 2 3 3 4 5 6 6 7 8 8 9 9 10 11 11 13 13 13 13 14 14 14 16 18 20 20 20 21 20 19 21 23
16 15 14 11 10 11 10 10 10 10 9 9 9 8 9 9 8 7 5 4 3 2 1 2 2 2 2 2 1 1 2 3 5 5 6 8 8 8 9 9 10 10 10 11 11 12 13 14 13 14 15 14 15 17 20 22 22 23 23 22 23 25
15 14 12 11 11 11 10 10 10 9 8 7 7 8 8 7 6 5 4 4 3 3 3 2 2 2 2 1 1 1 2 4 5 7 8 8 9 9 9 9 10 10 11 11 12 13 13 13 14 14 15 16 16 18 19 20 22 24 25 25 25 26
14 13 12 12 11 10 10 10 8 7 6 6 6 7 7 6 6 5 5 4 4 4 4 3 2 1 1 1 2 3 4 5 6 8 9 9 9 9 9 10 10 11 12 12 12 13 14 14 14 15 16 17 17 18 18 19 21 23 25 26 25 25
14 13 13 12 11 9 9 8 7 7 7 7 7 7 7 7 6 6 6 6 5 5 4 4 2 1 1 1 2 4 5 6 8 8 9 9 9 9 10 10 11 12 13 13 14 14 15 15 15 16 17 18 18 18 19 20 20 22 24 25 24 24
12 12 12 11 10 8 9 8 8 8 8 8 8 8 7 7 7 8 8 7 6 5 4 3 2 2 2 2 3 4 6 7 8 8 9 9 9 10 11 11 12 14 15 16 15 16 16 16 16 17 18 18 19 19 19 20 21 21 22 22 23 23
11 11 10 10 9 8 10 10 9 8 8 9 10 8 8 8 7 7 7 7 6 6 4 3 2 2 2 3 4 4 6 7 7 8 9 9 9 10 12 13 14 15 16 17 16 16 16 17 17 18 18 19 19 19 18 19 20 20 20 21 22 22
10 10 10 9 8 9 10 10 9 8 10 11 11 8 8 8 9 10 10 9 8 6 4 3 2 3 3 4 5 5 6 8 7 8 8 10 11 11 12 14 14 14 15 15 15 15 14 15 17 17 17 18 18 17 17 17 18 19 19 20 20 20
11 11 10 7 8 9 10 10 9 9 11 11 10 8 8 9 11 12 12 10 7 5 4 2 2 4 4 5 5 6 7 8 8 8 9 10 12 13 13 13 13 12 12 13 14 14 13 14 15 15 15 15 16 16 15 16 17 18 18 18 18 19
11 11 8 8 10 11 10 10 10 10 10 8 8 9 9 9 8 8 6 5 4 3 2 2 3 4 6 6 7 7 8 8 9 9 10 10 12 13 13 12 11 10 10 11 12 13 12 13 14 14 14 13 14 15 15 15 15 16 17 17 17 17
11 10 8 11 13 11 10 10 10 10 8 7 7 8 7 7 6 5 3 3 2 1 1 2 4 5 7 8 8 8 8 8 9 9 10 11 12 13 13 12 11 10 10 10 11 11 11 12 13 14 14 13 12 13 14 14 14 15 17 18 17 16
10 10 10 12 11 9 8 10 11 10 8 7 7 7 7 6 5 2 2 2 2 2 3 4 5 6 7 8 8 8 8 9 9 9 11 12 13 13 12 12 12 11 11 11 12 12 11 11 11 13 14 15 13 13 14 14 14 15 17 17 17 17
9 11 11 10 8 9 10 12 10 9 8 8 7 7 7 6 5 3 2 3 3 3 4 5 6 7 8 8 8 9 9 9 10 10 11 12 13 13 13 13 12 12 12 12 12 13 13 12 12 12 13 14 15 15 15 16 15 15 15 16 16 17
10 13 13 9 8 10 11 12 11 10 9 8 8 8 7 6 5 4 4 4 4 4 5 7 7 8 8 8 9 9 10 10 10 10 11 12 12 12 13 13 12 12 13 13 13 14 14 14 14 14 14 15 16 16 16 17 17 14 14 16 17 16
12 14 14 11 11 11 11 12 13 11 9 8 10 9 7 5 5 5 5 5 5 5 7 7 8 8 8 8 9 9 9 9 9 10 10 11 11 11 12 12 12 13 13 14 14 14 15 15 16 16 16 16 16 17 17 17 18 17 15 16 17 18
12 13 13 12 11 11 11 11 11 10 9 9 9 7 5 6 7 6 6 6 6 6 7 8 7 7 7 7 8 8 9 9 9 9 10 10 11 12 12 13 13 14 14 15 16 16 16 16 16 17 18 18 18 19 19 18 19 20 19 16 15 18
10 10 12 12 12 12 11 10 9 9 10 10 8 5 6 7 8 7 7 7 7 7 8 8 7 7 7 8 8 9 9 9 9 10 10 10 11 11 13 14 15 15 16 17 17 18 18 18 18 18 18 19 20 20 21 21 20 21 22 21 18 16
11 11 12 14 15 14 12 10 10 10 10 8 7 7 8 8 8 9 8 8 8 8 8 8 8 7 8 8 9 9 10 10 10 10 10 10 11 12 13 15 16 17 17 18 19 19 19 20 20 20 20 21 21 22 22 22 23 23 25 26 24 21
13 14 15 17 18 17 14 12 12 12 10 9 8 9 9 10 10 9 9 8 8 8 8 8 8 8 8 9 9 9 9 10 10 11 11 11 12 14 15 16 17 18 18 19 19 20 21 21 21 22 23 23 23 23 23 23 24 26 26 27 28 27
13 14 17 20 19 17 16 15 13 11 10 10 9 10 11 11 10 10 10 9 8 8 8 8 8 8 8 9 10 10 10 10 10 11 12 13 14 15 16 17 18 19 19 20 20 21 22 22 23 23 24 25 25 25 26 26 26 27 28 30 31 31
13 15 18 20 19 17 17 16 13 11 10 9 10 11 11 11 11 10 9 9 9 8 8 7 8 8 9 10 10 10 11 11 11 12 13 14 15 16 17 18 19 19 20 21 22 23 23 24 24 24 25 25 26 27 28 29 29 30 31 32 33 34
16 17 18 18 18 19 17 15 12 11 10 10 11 11 11 11 11 10 9 9 9 8 7 8 8 9 10 11 11 11 11 11 12 12 13 15 16 17 18 18 19 20 21 22 23 24 24 25 25 25 26 26 26 27 28 29 30 31 32 33 34 35
16 17 18 19 20 18 16 14 12 11 10 11 12 11 12 12 11 10 9 9 8 7 8 9 9 10 11 11 11 11 11 11 12 13 14 15 16 17 18 19 21 22 23 24 24 25 25 25 26 26 26 27 27 28 28 29 30 31 32 33 34 36
17 18 20 20 18 16 15 14 13 12 12 12 12 12 13 12 11 10 9 9 8 8 9 9 10 11 11 11 11 11 11 11 12 13 14 15 16 18 20 21 23 24 25 26 26 26 26 26 27 27 27 27 28 28 29 29 30 31 33 34 35 36
19 20 21 19 17 16 16 16 14 14 14 13 13 13 13 12 11 11 10 9 9 9 9 10 11 11 11 11 11 11 11 12 13 13 15 16 18 20 22 24 26 26 27 27 27 27 27 27 27 27 28 28 28 29 29 30 30 32 33 34 35 36
19 19 20 19 19 19 18 17 16 15 15 14 14 14 14 13 12 12 11 10 10 10 10 11 11 12 12 11 11 11 12 12 13 15 16 18 20 22 25 27 28 29 28 28 28 28 27 27 27 26 27 27 27 28 28 28 29 30 31 32 33 35
Wind_Direction
216 217 219 222 224 227 229 230 233 232 232 232 230 230 230 232 238 244 246 247 248 249 249 251 254 257 250 253 258 252 251 262 272 278 283 286 288 289 289 290 291 297 301 300 298 296 296 296 294 294 293 292 293 295 299 302 303 304 301 304 306 300
219 219 222 225 226 229 230 232 233 235 234 233 232 233 232 232 237 241 246 249 249 250 251 250 247 251 252 251 257 257 253 255 262 267 272 275 281 284 286 286 282 285 293 297 299 300 299 297 296 296 293 292 291 291 294 297 298 298 296 301 306 298
219 221 225 226 228 230 232 233 234 236 235 234 235 236 234 231 236 240 244 248 252 255 255 251 245 250 262 266 266 269 269 265 265 265 267 268 270 272 274 277 279 282 287 293 298 299 298 297 297 295 292 291 291 292 293 294 297 298 294 298 303 299
219 221 224 226 229 230 232 234 236 237 237 238 238 238 238 236 238 243 245 247 252 259 265 267 268 269 270 274 276 279 279 275 273 271 269 270 269 267 268 269 274 278 282 288 294 295 295 296 296 294 292 292 292 293 296 295 295 296 292 295 299 297
222 223 223 226 229 230 233 235 238 240 240 242 243 244 245 245 246 247 246 247 253 263 273 278 283 286 283 281 281 283 282 283 282 279 278 276 272 270 269 270 271 273 277 281 286 290 295 298 298 298 296 296 296 294 294 293 293 293 289 292 296 293
226 228 224 225 227 230 234 237 240 242 244 246 247 249 250 251 251 250 246 247 255 264 272 280 283 284 287 285 285 285 286 290 288 285 287 283 278 274 272 273 272 272 275 278 282 286 291 295 300 304 303 300 298 297 296 295 293 292 289 291 293 292
226 230 228 226 228 231 234 237 241 243 246 249 249 250 252 255 253 247 244 248 254 259 265 273 272 270 283 291 295 300 301 303 296 297 300 297 297 288 278 275 272 270 273 275 278 283 288 292 297 301 302 302 302 299 298 297 295 292 288 289 292 294
224 228 230 231 231 235 239 239 240 245 248 250 251 250 251 253 246 242 244 249 251 255 262 267 266 276 300 300 304 314 317 319 317 325 328 321 323 316 304 294 288 282 279 280 283 291 298 301 303 300 298 301 303 301 298 295 294 293 290 291 294 296
223 226 231 234 235 240 246 247 245 247 250 250 250 248 246 243 242 245 247 250 252 257 269 276 280 302 315 300 314 338 335 337 330 339 349 342 341 332 321 316 309 301 298 298 298 301 303 305 306 305 303 301 301 300 298 296 293 292 291 292 296 296
221 227 233 238 241 247 252 252 251 248 248 248 247 248 247 245 246 247 247 251 256 263 278 290 302 319 316 300 345 18 7 360 347 353 1 353 345 331 324 325 319 310 307 305 303 302 300 299 299 301 304 304 304 298 295 296 294 294 291 291 295 297
221 228 235 241 246 251 249 248 250 247 247 249 249 251 249 246 245 243 245 250 259 274 292 306 325 348 30 11 18 33 28 22 5 356 354 347 337 327 327 326 321 314 308 306 306 303 299 298 297 297 298 301 304 301 298 298 298 299 296 293 297 297
220 228 234 241 244 242 239 242 247 246 248 251 251 250 247 243 238 237 241 247 265 283 295 320 47 52 75 52 28 33 7 351 345 340 337 335 329 325 324 319 315 310 307 306 304 302 299 297 297 294 291 292 296 297 298 298 298 299 297 298 300 298
217 225 233 238 238 237 237 239 242 244 249 251 249 245 241 237 232 232 234 243 256 248 213 149 147 136 122 132 98 40 342 331 328 331 329 324 322 322 320 317 313 308 305 303 300 297 295 295 295 293 292 291 290 290 292 295 297 299 298 301 301 297
218 221 228 230 232 235 236 237 239 244 251 248 240 237 235 233 230 228 232 240 219 179 179 165 153 136 114 107 23 357 340 327 322 326 324 320 321 320 317 315 312 308 305 302 298 297 297 297 297 297 297 295 293 291 290 292 295 298 299 301 301 298
218 220 224 227 231 234 238 241 244 245 242 237 228 230 234 229 224 218 220 223 193 173 174 161 145 121 55 5 350 342 333 324 321 322 321 321 321 320 318 315 312 309 308 306 303 302 301 301 300 299 298 296 295 294 293 293 295 296 297 299 300 299
220 226 227 230 234 240 247 245 239 230 221 223 223 227 228 219 214 210 204 200 187 174 167 154 156 220 296 331 331 333 327 320 321 322 323 324 322 321 321 318 315 313 313 311 307 304 302 300 299 298 297 297 297 297 297 296 296 297 297 297 297 298
226 231 231 233 237 241 246 237 223 219 216 217 221 224 221 209 199 196 188 181 178 171 171 176 203 246 280 311 323 327 319 317 320 323 324 324 323 322 322 322 321 318 318 316 311 307 306 304 302 300 299 299 298 298 298 297 296 296 296 297 297 299
225 228 230 233 237 237 242 241 227 219 221 218 216 221 225 215 197 194 186 175 178 178 185 201 224 261 296 316 320 318 311 314 318 321 324 323 322 323 323 325 324 324 323 321 319 316 314 312 310 307 305 305 304 303 301 298 296 295 296 299 300 301
229 233 238 236 233 232 239 245 236 226 226 220 213 214 222 217 206 203 191 178 181 181 190 211 240 275 300 310 312 309 306 312 315 321 322 319 322 325 326 326 329 332 331 329 328 324 321 317 314 313 311 309 309 307 307 305 301 301 302 303 306 305
228 231 238 236 230 231 235 238 235 230 227 221 209 197 197 204 208 203 182 167 173 176 187 220 264 287 301 307 306 305 304 309 314 321 321 319 325 327 327 329 333 335 332 333 332 326 323 319 317 316 315 315 313 309 310 312 309 309 309 311 313 311
226 229 231 232 234 234 233 228 227 229 227 221 205 192 191 198 208 203 165 142 164 178 195 247 289 300 308 309 307 306 309 315 317 321 324 325 328 328 328 331 334 334 331 333 331 328 326 323 322 319 319 322 318 313 315 316 314 314 315 317 317 314
235 237 229 231 239 240 233 219 213 221 225 220 209 200 198 198 205 197 152 143 182 204 262 285 296 304 308 307 308 310 314 319 321 323 326 328 329 329 332 332 332 332 332 332 330 330 329 327 327 325 325 328 324 319 319 321 323 322 320 320 322 322
239 241 235 232 235 231 222 217 213 213 213 211 207 204 201 203 217 212 164 202 237 261 285 294 301 304 307 306 307 310 314 319 322 326 328 330 330 331 333 333 332 332 332 334 333 335 336 334 330 326 328 330 330 327 323 325 331 331 327 325 326 326
240 240 243 237 223 205 206 215 215 208 201 200 203 204 201 201 214 233 239 256 275 289 294 301 306 307 308 307 308 311 316 321 324 326 328 330 330 331 333 333 334 334 333 334 335 337 339 340 336 329 328 327 327 328 326 324 328 332 330 326 325 325
237 234 235 230 215 204 199 196 193 192 186 183 194 200 199 204 218 241 261 273 285 294 300 305 308 308 308 308 310 313 317 322 322 323 326 328 330 332 332 332 334 334 332 332 334 335 336 337 338 335 331 327 324 326 326 323 323 326 328 324 322 322
232 230 226 217 212 209 198 184 179 181 176 177 194 196 194 219 249 260 269 280 287 294 298 304 306 305 306 308 311 313 315 317 315 317 323 326 328 330 329 330 331 331 329 329 330 332 332 333 334 334 331 329 327 323 323 324 323 323 324 324 321 319
228 225 220 211 205 201 195 184 174 173 180 193 201 198 205 236 255 263 271 279 281 288 295 301 305 302 303 306 308 311 310 308 306 309 318 323 326 327 327 328 328 327 327 326 326 327 327 328 328 328 327 327 326 323 323 325 322 319 317 318 319 316
224 214 207 199 190 187 185 180 176 178 190 201 204 212 233 245 258 266 268 271 278 290 299 304 305 302 304 307 309 309 306 304 302 304 312 320 323 324 323 324 323 322 322 322 322 322 323 323 322 322 322 321 321 320 321 321 319 316 313 312 312 309
222 204 194 186 180 179 178 181 187 190 196 205 218 235 245 253 263 267 267 272 283 295 302 304 305 305 307 309 309 306 304 303 301 302 306 311 315 316 317 319 318 318 318 318 319 319 319 319 318 317 316 316 316 315 316 315 313 312 311 311 311 309
211 198 187 180 176 175 175 181 185 187 197 213 229 241 251 259 265 269 272 277 288 298 303 304 303 305 307 306 304 303 301 300 299 300 303 306 311 314 315 316 315 315 315 315 316 317 316 316 316 315 314 313 312 311 310 309 308 308 308 306 306 307
202 190 178 174 174 172 172 179 185 191 204 220 235 246 255 262 268 271 274 282 294 302 304 303 301 302 302 301 302 301 299 300 301 303 306 310 313 315 316 316 316 315 315 315 315 314 313 313 312 312 311 310 310 309 308 307 306 305 304 303 302 304
190 179 173 173 174 173 178 187 196 206 218 232 244 253 259 264 269 272 276 286 296 301 301 299 298 299 301 301 303 303 304 305 307 309 312 315 316 317 318 318 318 317 316 315 313 312 310 309 308 307 306 306 306 305 305 304 304 303 302 302 302 302
181 177 174 174 178 183 193 203 208 218 231 244 252 257 262 266 270 273 279 289 295 299 296 295 296 299 302 305 308 309 310 312 313 315 317 318 320 321 322 322 321 320 318 315 313 311 309 307 306 304 303 302 301 300 300 300 300 300 300 300 300 299
182 182 178 181 191 198 206 215 219 229 242 252 257 261 263 266 269 272 280 289 293 292 290 295 301 304 307 309 312 313 314 316 318 319 321 322 325 325 324 324 322 321 319 316 314 311 309 307 305 303 302 300 299 298 297 297 297 297 297 297 297 296
189 192 190 194 203 210 215 220 228 238 247 252 256 259 261 265 267 270 279 285 287 287 292 300 304 307 310 311 314 316 316 318 319 321 323 325 326 325 324 324 323 322 319 316 314 312 311 309 307 305 303 301 300 298 297 297 297 296 295 295 295 295
197 202 204 207 211 215 220 226 233 241 247 252 254 257 261 265 266 268 276 281 284 288 294 302 306 308 311 312 314 315 316 317 319 321 324 324 325 325 325 324 323 321 319 316 314 312 311 309 308 307 305 303 302 301 300 299 297 296 295 294 294 294
206 209 212 213 215 219 224 230 237 244 250 252 254 258 263 266 267 267 273 280 285 289 296 302 307 308 310 311 312 312 313 315 318 321 323 324 326 326 326 325 323 321 319 316 314 313 312 311 310 310 308 307 306 305 305 303 301 298 297 295 294 293
Height
3158 3159 3160 3160 3161 3162 3162 3162 3163 3164 3165 3166 3166 3167 3168 3168 3169 3169 3170 3170 3171 3172 3173 3174 3174 3175 3175 3176 3176 3176 3176 3177 3176 3176 3176 3176 3176 3176 3176 3176 3176 3176 3176 3176 3176 3177 3177 3177 3177 3177 3177 3177 3176 3176 3176 3175 3175 3174 3173 3173 3174 3173
3157 3158 3158 3159 3160 3161 3161 3162 3162 3163 3164 3165 3166 3166 3167 3168 3168 3168 3169 3170 3171 3172 3173 3173 3174 3174 3175 3175 3176 3176 3176 3176 3176 3176 3176 3176 3176 3176 3176 3176 3176 3175 3176 3176 3176 3176 3176 3176 3176 3176 3176 3176 3176 3175 3175 3175 3174 3174 3172 3171 3173 3172
3156 3157 3158 3159 3159 3160 3161 3161 3162 3163 3164 3164 3165 3166 3167 3167 3167 3168 3169 3169 3170 3171 3172 3173 3174 3174 3175 3175 3175 3176 3176 3176 3176 3176 3176 3176 3175 3175 3175 3175 3175 3175 3175 3175 3175 3175 3175 3175 3175 3175 3175 3175 3174 3174 3174 3174 3173 3173 3171 3170 3171 3171
3155 3156 3157 3158 3158 3159 3160 3161 3161 3162 3163 3163 3164 3165 3166 3167 3167 3168 3169 3169 3170 3170 3171 3172 3173 3174 3174 3175 3175 3175 3176 3176 3176 3176 3176 3175 3175 3175 3175 3174 3174 3174 3174 3174 3174 3174 3174 3174 3174 3174 3174 3174 3173 3173 3173 3173 3172 3172 3170 3169 3170 3169
3153 3155 3156 3157 3158 3158 3159 3160 3161 3161 3162 3163 3164 3165 3166 3167 3167 3168 3169 3169 3170 3170 3171 3171 3172 3173 3174 3174 3175 3175 3175 3175 3175 3175 3175 3175 3174 3174 3174 3174 3173 3173 3173 3173 3173 3173 3172 3172 3172 3173 3173 3173 3172 3172 3171 3171 3171 3171 3169 3167 3168 3168
3152 3153 3155 3156 3157 3158 3158 3159 3160 3161 3162 3163 3163 3164 3165 3166 3167 3168 3169 3169 3169 3170 3170 3171 3172 3172 3173 3174 3174 3174 3174 3174 3174 3174 3174 3173 3173 3173 3173 3173 3173 3173 3172 3172 3172 3172 3172 3171 3170 3170 3171 3171 3171 3170 3170 3170 3169 3169 3168 3166 3166 3166
3151 3152 3154 3155 3156 3157 3157 3159 3159 3160 3161 3162 3163 3164 3165 3166 3167 3168 3168 3169 3169 3170 3170 3171 3171 3172 3172 3173 3173 3173 3174 3173 3173 3173 3172 3172 3172 3172 3172 3172 3172 3172 3171 3171 3171 3171 3171 3171 3170 3169 3169 3169 3169 3169 3169 3168 3168 3168 3166 3164 3165 3165
3150 3152 3153 3154 3155 3156 3157 3158 3159 3160 3161 3162 3163 3164 3165 3166 3167 3167 3168 3168 3169 3169 3170 3171 3170 3171 3173 3172 3172 3172 3172 3172 3172 3172 3171 3171 3170 3170 3170 3170 3170 3170 3170 3170 3170 3169 3169 3169 3169 3169 3168 3167 3167 3167 3167 3167 3167 3166 3165 3163 3163 3164
3150 3151 3152 3153 3154 3155 3156 3158 3159 3160 3161 3162 3163 3164 3165 3166 3166 3167 3167 3168 3168 3169 3170 3170 3170 3172 3173 3172 3171 3171 3171 3171 3171 3171 3171 3170 3170 3170 3169 3169 3169 3169 3169 3169 3169 3168 3168 3168 3168 3167 3167 3166 3166 3165 3164 3165 3165 3165 3163 3161 3161 3161
3150 3150 3151 3153 3154 3155 3156 3158 3158 3160 3161 3161 3163 3164 3164 3165 3166 3166 3167 3167 3168 3169 3170 3170 3170 3171 3172 3171 3170 3170 3170 3171 3170 3170 3170 3170 3170 3169 3169 3169 3168 3168 3168 3168 3167 3167 3167 3167 3167 3167 3166 3165 3165 3164 3163 3163 3163 3163 3162 3160 3159 3159
3149 3150 3152 3153 3154 3156 3157 3157 3158 3159 3160 3161 3163 3164 3164 3165 3166 3166 3166 3167 3168 3168 3169 3169 3169 3170 3171 3170 3169 3169 3170 3170 3170 3170 3170 3170 3169 3169 3168 3168 3167 3167 3167 3166 3166 3166 3166 3165 3165 3166 3165 3164 3164 3163 3162 3161 3161 3161 3161 3159 3158 3157
3149 3150 3152 3154 3155 3156 3156 3157 3158 3159 3160 3162 3163 3163 3164 3165 3165 3166 3166 3167 3168 3168 3168 3169 3169 3170 3170 3169 3169 3169 3170 3170 3170 3169 3169 3169 3168 3168 3167 3167 3166 3166 3166 3165 3165 3165 3164 3164 3164 3164 3164 3164 3163 3162 3161 3159 3159 3159 3158 3158 3157 3156
3149 3150 3152 3154 3155 3155 3156 3157 3158 3159 3161 3162 3163 3163 3164 3165 3165 3166 3166 3167 3167 3167 3167 3168 3169 3169 3169 3169 3169 3170 3170 3170 3169 3169 3168 3168 3167 3166 3166 3165 3165 3165 3165 3164 3164 3164 3163 3163 3162 3162 3162 3162 3161 3161 3160 3158 3157 3156 3156 3156 3155 3154
3149 3150 3152 3153 3154 3155 3156 3157 3158 3160 3161 3162 3163 3163 3164 3164 3165 3166 3166 3166 3167 3167 3167 3168 3168 3168 3169 3169 3169 3170 3170 3169 3169 3168 3168 3167 3166 3165 3165 3164 3164 3164 3163 3163 3162 3162 3162 3161 3161 3160 3160 3160 3160 3159 3159 3157 3156 3155 3154 3153 3153 3151
3149 3150 3151 3152 3154 3155 3156 3157 3159 3161 3161 3162 3163 3163 3164 3165 3165 3166 3166 3166 3167 3167 3167 3167 3168 3168 3168 3169 3169 3169 3169 3169 3168 3168 3167 3166 3165 3165 3164 3164 3163 3163 3162 3162 3161 3160 3160 3160 3159 3159 3158 3158 3158 3157 3157 3156 3155 3154 3152 3151 3150 3149
3149 3150 3151 3152 3154 3155 3156 3158 3159 3160 3161 3162 3163 3163 3164 3165 3165 3166 3166 3167 3167 3167 3168 3168 3168 3168 3168 3169 3168 3168 3168 3168 3167 3167 3166 3165 3165 3164 3163 3163 3162 3161 3161 3160 3159 3159 3158 3158 3157 3157 3157 3156 3156 3156 3155 3154 3153 3152 3151 3149 3148 3147
3149 3150 3150 3152 3154 3156 3157 3157 3158 3160 3161 3162 3162 3163 3164 3164 3165 3165 3165 3166 3167 3167 3167 3168 3168 3168 3168 3168 3168 3168 3167 3167 3166 3165 3165 3164 3163 3162 3162 3161 3161 3160 3159 3158 3158 3157 3156 3156 3156 3155 3155 3154 3154 3153 3153 3152 3151 3150 3149 3148 3146 3145
3148 3149 3150 3152 3154 3156 3156 3156 3158 3161 3161 3162 3162 3162 3162 3164 3165 3165 3164 3166 3167 3167 3167 3168 3168 3167 3168 3168 3167 3167 3166 3166 3165 3164 3163 3163 3162 3161 3161 3160 3159 3159 3157 3157 3156 3155 3155 3154 3153 3153 3153 3152 3151 3151 3151 3150 3149 3148 3147 3146 3145 3144
3149 3149 3150 3152 3155 3156 3156 3157 3158 3161 3161 3161 3162 3163 3164 3165 3166 3166 3167 3167 3167 3167 3167 3167 3167 3167 3167 3167 3166 3166 3165 3164 3164 3163 3162 3161 3161 3160 3160 3159 3158 3158 3157 3156 3155 3154 3154 3153 3152 3151 3151 3150 3150 3149 3149 3148 3147 3146 3145 3144 3143 3142
3148 3148 3150 3153 3154 3156 3157 3157 3158 3160 3160 3161 3163 3165 3166 3166 3167 3168 3167 3165 3165 3166 3166 3167 3167 3166 3166 3166 3165 3165 3164 3163 3163 3162 3161 3161 3160 3159 3158 3158 3157 3157 3156 3155 3154 3153 3152 3152 3151 3150 3150 3149 3149 3148 3147 3146 3145 3144 3143 3143 3142 3140
3147 3148 3152 3153 3153 3154 3156 3157 3158 3159 3159 3161 3163 3164 3164 3165 3166 3166 3163 3162 3163 3164 3165 3166 3166 3166 3165 3165 3164 3164 3163 3163 3162 3161 3161 3160 3159 3158 3157 3157 3156 3155 3155 3154 3153 3153 3152 3151 3150 3149 3149 3148 3147 3146 3146 3145 3144 3143 3142 3142 3141 3139
3147 3149 3153 3153 3153 3155 3156 3157 3158 3158 3159 3160 3162 3163 3163 3164 3166 3165 3162 3162 3164 3165 3165 3166 3165 3165 3165 3164 3164 3163 3163 3162 3162 3161 3160 3159 3158 3157 3157 3156 3155 3154 3154 3153 3153 3152 3151 3150 3149 3148 3147 3147 3146 3145 3144 3143 3143 3142 3141 3140 3139 3138
3147 3148 3150 3151 3153 3157 3157 3157 3157 3159 3159 3160 3161 3163 3164 3165 3166 3165 3164 3165 3165 3165 3166 3165 3165 3165 3164 3164 3163 3163 3162 3162 3161 3160 3159 3159 3157 3157 3156 3155 3155 3154 3153 3152 3152 3151 3150 3149 3148 3147 3146 3145 3144 3144 3143 3142 3141 3140 3139 3138 3137 3136
3147 3146 3147 3150 3154 3156 3156 3156 3158 3159 3160 3160 3162 3164 3165 3167 3168 3166 3166 3166 3165 3165 3165 3165 3165 3164 3164 3163 3163 3162 3161 3161 3160 3159 3159 3158 3157 3156 3155 3155 3154 3153 3153 3152 3151 3150 3149 3148 3147 3146 3145 3144 3143 3142 3141 3140 3140 3139 3138 3137 3136 3135
3145 3145 3146 3149 3152 3154 3155 3157 3158 3158 3160 3162 3163 3164 3167 3168 3168 3167 3167 3166 3165 3165 3164 3164 3164 3163 3163 3162 3162 3161 3161 3160 3159 3159 3158 3157 3156 3155 3154 3154 3153 3153 3152 3151 3150 3149 3148 3147 3146 3145 3143 3142 3141 3140 3139 3138 3137 3138 3137 3135 3134 3134
3143 3144 3146 3149 3151 3152 3155 3157 3158 3158 3160 3162 3164 3165 3166 3166 3166 3167 3166 3166 3165 3164 3164 3163 3163 3163 3162 3162 3161 3161 3160 3159 3159 3158 3157 3156 3156 3155 3154 3153 3153 3152 3151 3150 3149 3149 3148 3147 3146 3145 3143 3142 3140 3139 3138 3137 3135 3135 3135 3134 3133 3131
3142 3144 3146 3149 3150 3152 3154 3156 3157 3158 3160 3162 3164 3164 3164 3165 3166 3166 3166 3165 3164 3163 3163 3163 3162 3162 3162 3161 3161 3160 3159 3159 3158 3157 3157 3156 3155 3154 3153 3153 3152 3151 3150 3149 3148 3148 3147 3146 3145 3144 3142 3141 3140 3138 3137 3135 3134 3132 3131 3132 3132 3130
3141 3143 3146 3148 3149 3151 3153 3155 3156 3158 3160 3163 3163 3162 3163 3164 3165 3165 3164 3164 3163 3162 3162 3162 3161 3161 3161 3160 3160 3159 3159 3158 3157 3157 3156 3155 3154 3153 3153 3152 3151 3150 3149 3148 3147 3146 3146 3145 3144 3143 3142 3140 3139 3137 3136 3134 3133 3130 3128 3128 3129 3129
3140 3142 3144 3147 3148 3150 3151 3153 3156 3158 3161 3162 3161 3161 3163 3163 3164 3164 3163 3162 3162 3161 3161 3161 3160 3160 3160 3160 3159 3158 3158 3157 3157 3156 3155 3155 3154 3153 3152 3151 3150 3149 3148 3147 3146 3145 3144 3143 3142 3141 3140 3139 3137 3136 3135 3133 3131 3129 3127 3125 3124 3125
3138 3140 3143 3145 3147 3148 3150 3152 3155 3157 3159 3159 3160 3160 3161 3162 3163 3162 3162 3161 3161 3160 3160 3160 3160 3160 3159 3159 3158 3158 3157 3156 3156 3155 3154 3153 3152 3151 3150 3150 3149 3148 3147 3146 3145 3144 3143 3142 3140 3139 3137 3136 3135 3134 3133 3132 3130 3128 3126 3123 3121 3121
3137 3139 3141 3143 3145 3147 3149 3152 3154 3155 3156 3157 3158 3159 3160 3161 3161 3161 3160 3160 3160 3159 3159 3159 3159 3159 3159 3158 3157 3156 3156 3155 3154 3153 3153 3152 3151 3150 3149 3148 3147 3146 3145 3145 3144 3142 3141 3140 3139 3137 3136 3134 3132 3131 3130 3128 3127 3125 3123 3121 3119 3118
3137 3139 3141 3142 3144 3146 3148 3150 3152 3153 3154 3155 3157 3158 3159 3159 3159 3159 3159 3159 3158 3158 3158 3158 3159 3158 3158 3157 3156 3155 3154 3154 3153 3152 3151 3150 3149 3148 3147 3146 3145 3145 3144 3143 3142 3141 3139 3138 3137 3135 3134 3132 3130 3129 3127 3125 3124 3122 3120 3118 3116 3114
3137 3138 3140 3141 3143 3145 3147 3149 3150 3151 3152 3154 3156 3157 3157 3157 3157 3158 3158 3158 3158 3158 3158 3158 3158 3157 3156 3155 3155 3154 3153 3152 3151 3150 3149 3149 3148 3147 3146 3145 3144 3143 3142 3141 3140 3138 3137 3136 3134 3133 3131 3130 3128 3126 3125 3123 3121 3119 3117 3115 3113 3110
3136 3137 3139 3141 3143 3145 3146 3147 3149 3150 3151 3153 3154 3155 3156 3156 3156 3157 3157 3157 3157 3157 3157 3157 3156 3156 3155 3154 3153 3152 3151 3151 3150 3149 3148 3147 3146 3145 3144 3143 3142 3141 3140 3139 3137 3136 3134 3133 3131 3130 3128 3127 3125 3124 3122 3120 3118 3116 3114 3112 3110 3108
3135 3137 3139 3141 3142 3144 3145 3146 3148 3149 3151 3152 3153 3154 3154 3155 3155 3156 3156 3156 3156 3155 3155 3155 3155 3154 3153 3153 3152 3151 3150 3149 3148 3148 3147 3146 3145 3144 3142 3141 3140 3139 3137 3136 3134 3133 3131 3130 3128 3127 3125 3124 3122 3121 3119 3117 3116 3114 3112 3109 3107 3105
3135 3136 3139 3140 3142 3143 3144 3145 3147 3148 3150 3151 3152 3153 3153 3154 3154 3154 3155 3154 3154 3154 3154 3154 3153 3153 3152 3151 3150 3149 3149 3148 3147 3146 3145 3144 3143 3142 3141 3139 3138 3137 3135 3133 3132 3130 3128 3127 3125 3124 3122 3121 3119 3117 3116 3115 3113 3111 3109 3107 3104 3102
3134 3136 3137 3139 3140 3142 3143 3144 3146 3147 3149 3150 3151 3152 3152 3153 3153 3153 3153 3153 3153 3153 3153 3152 3152 3151 3150 3150 3149 3148 3147 3147 3146 3145 3144 3142 3141 3140 3139 3137 3136 3134 3132 3130 3129 3127 3125 3124 3122 3121 3119 3117 3116 3114 3113 3111 3109 3107 3105 3104 3102 3100